Showing default

TANSTAAFL-2, 62378

Orbit data source: Space-Track

TANSTAAFL-2, 62378 is a payload satellite owned by True Anomaly (US) in LEO that was launched on Sat, 21 Dec 2024 UTC via an FALCON 9 launch vehicle from the Air Force Western Test Range (AFWTR). Payloads include a variety of satellites, spacecraft, and rockets equipped with specific instruments for various scientific and technological missions. These include communications satellites like Starlink; space stations such as the ISS; scientific satellites like the Hubble; Earth observation satellites from companies like Planet Labs, Umbra, and HawkEye 360; GPS; miniature CubeSats for education and research; and military/defense satellites.

Loading next visibility...
TANSTAAFL-2 details
Identifier
62378, 2024-247B
Orbit
LEO
Last TLE update1 day ago
Origin
Flag of USTrue Anomaly (US)
ManufacturerTrue Anomaly
MissionOperational Commercial Technology
Bus & MotorJACKAL, Unknown motor
Mass275 kg wet, 275 kg dry
Launch date (UTC)
2024-12-21 (2 months ago)
Launch vehicle
FALCON 9
Launch site
Air Force Western Test Range (AFWTR)
Object type
Payload
Rocket body
Debris
Shape & HBROct Cyl + 8 Pan, 1.4 m
Radar Cross Section1.008 m², Large (>1 m²)

Expand to show TLE details & history

TLE from 1 day ago
0 TANSTAAFL-2
1 62378U 24247B   25035.25053809  .00013804  00000-0  65064-3 0  9992
2 62378  44.9957 119.7154 0002614 289.8461  70.2137 15.19479796  6953
Epoch: 2025-02-04T06:00Z
Definitive object data (Epoch: 2025-02-04T06:00:46.49Z)
Latitude-0.00004°
Longitude-105.13687°
Altitude506.801 km
Speed7.613 km/s
True Right ascension07h 58m 51s
True Declination0° 00' 00"
Sunlit
Object was in full shadow at TLE epoch
Visualization TLE readout
Latitude-43.96777°
Longitude142.91482°
Altitude519.807 km
Speed7.605 km/s
Apparent Right ascension22h 41m 53s
Apparent Declination-45° 16' 12"
Sunlit
Object is in daylight
Visualization observer readout
Local Sidereal Time08:50:57
Azimuth246.093° WSW
Elevation-69.005°
Doppler factor1
Orbital elements
Apogee altitude510.816 km
Perigee altitude507.216 km
Semi-major axis6,887.153 km
Eccentricity0.0002614
Inclination44.9957°
RAAN119.7154°
Arg. of periapsis289.8461°
True anomaly70.24189°
Mean anomaly70.2137°
Eccentric anomaly70.22779°
Mean motion3.79738 °/min
BSTAR0.00065064
Orbital period94.8 mins
Loading maneuver chart data...
Loading historical data...
Loading historical data...
Loading historical data...
Loading historical data...
Loading historical data...
Loading historical data...
Loading historical data...

TANSTAAFL-2 Visibility forecast

Observer location: undefined°, undefined

Span
Click to sort rows by Start time (UTC) header in descending order
Start Az.
Max El. time (UTC)
Max El. Az.
Max El.
End time (UTC)
End Az.
4 mins2025-02-05 07:25:42.891Z173.375° S2025-02-05 07:27:42.891Z140.75° SSE15.156°2025-02-05 07:29:42.891Z106.958° ESE
5 mins2025-02-05 09:04:42.891Z236.636° WSW2025-02-05 09:06:42.891Z151.237° SSE44.368°2025-02-05 09:09:42.891Z69.094° E
6 mins2025-02-05 10:43:42.891Z287.739° WNW2025-02-05 10:46:42.891Z12.194° NNE32.459°2025-02-05 10:49:42.891Z62.699° ENE
6 mins2025-02-05 12:23:42.891Z306.332° NW2025-02-05 12:25:42.891Z354.216° N34.355°2025-02-05 12:29:42.891Z84.194° E
6 mins2025-02-05 14:02:42.891Z286.602° WNW2025-02-05 14:05:42.891Z189.503° SSW41.626°2025-02-05 14:08:42.891Z128.622° SE
|